Regional Weather Roundup
Issued by NWS

Home | Current Version | Previous Version | Text Only | Print | Product List | Glossary Off
Versions: 1 2 3 4 5 6 7 8 9 10 11 12 13 14 15 16 17 18 19 20 21 22 23 24 25 26 27 28 29 30 31 32 33 34 35 36 37 38 39 40 41 42 43 44 45 46 47 48 49 50

000
ASUS43 KLOT 241921
RWRIL

ILLINOIS REGIONAL WEATHER ROUNDUP
NATIONAL WEATHER SERVICE CHICAGO/ROMEOVILLE IL
200 PM CDT SUN MAY 24 2015

NOTE: "FAIR" INDICATES FEW OR NO CLOUDS BELOW 12,000 FEET WITH NO
SIGNIFICANT WEATHER AND/OR OBSTRUCTIONS TO VISIBILITY.

* THESE STATIONS ARE NOT UNDER NWS QUALITY CONTROL. THEY ALSO MAY NOT
  REPORT WEATHER SUCH AS PRECIPITATION OR FOG.

ILZ001-002-007-009-015-016-024-242000-
NORTHWEST ILLINOIS

CITY           SKY/WX    TMP DP  RH WIND       PRES   REMARKS
MOLINE         CLOUDY    71  67  87 E6        29.93F
STERLING*      CLOUDY    73  63  68 SE10      29.97F
SAVANNA*       LGT RAIN  65  61  87 E8        29.98F
$$

ILZ003-004-008-010-011-017-018-242000-
NORTH CENTRAL ILLINOIS

CITY           SKY/WX    TMP DP  RH WIND       PRES   REMARKS
ROCKFORD       CLOUDY    69  58  67 E13       30.02F
FREEPORT*      LGT RAIN  63  59  87 E7        30.03F
ROCHELLE*      CLOUDY    72  58  60 SE17      30.01F
DE KALB*       CLOUDY    72  57  58 SE15      30.04F
PERU*          HVY RAIN  72  64  75 SW24G30   30.03R
$$

ILZ005-006-012>014-019>023-242000-
NORTHEAST ILLINOIS

CITY           SKY/WX    TMP DP  RH WIND       PRES   REMARKS
CHICAGO-OHARE  CLOUDY    70  52  52 E13       30.06F
CHICAGO-MIDWAY CLOUDY    74  55  51 E10       30.06F
AURORA         CLOUDY    77  57  50 E17G24    30.03F
LANSING*       CLOUDY    77  56  47 E10       30.06F
JOLIET*        CLOUDY    79  60  50 SE10      30.03F HX  80
WAUKEGAN       LGT RAIN  59  51  75 E10       30.09F
DUPAGE AIRPORT CLOUDY    75  56  51 E12       30.04F
KANKAKEE*      CLOUDY    80  61  52 S12G17    30.04F HX  81
WHEELING       CLOUDY    65  51  60 E9        30.10F
MORRIS*        CLOUDY    79  59  49 SE12      30.01F HX  80
ROMEOVILLE*    CLOUDY    77  57  50 E9        30.04F
NORTHERLY ISL    N/A     59  51  75 NE7         N/A
$$

LMZ740>746-242000-
SOUTHERN LAKE MICHIGAN

STATION/POSITION SKY/WX   TEMP    WIND        PRES    VSBY  WAVE
                          AIR SEA DIR/SP/G                  HT/PER
                          (F)     (DEG/KT/KT) (MB)    (MI)  (FT/S)
SOUTHERN BUOY              44 38   60/  8/ 10 1020.9F         0
HARRISON CRIB              57      80/ 18/ 19   N/A
BURNHAM HARBOR             59      40/  6/  7   N/A
CALUMET HARBOR             61      70/  5/  7   N/A
BURNS HARBOR               76     140/  7/ 17 1020.0F
MICHIGAN CITY              76      90/  7/ 10   N/A
MICHIGAN CITY 6N           67 54  100/  6/  6   N/A           0
ST. JOSEPH                 68 56  150/  6/  8   N/A           0
$$

ILZ025>027-034>036-040-047-049-050-058-095>099-242000-
WEST-CENTRAL ILLINOIS

CITY           SKY/WX    TMP DP  RH WIND       PRES   REMARKS
QUINCY         CLOUDY    79  64  60 S15G30    29.92F HX  81
GALESBURG*     CLOUDY    78  65  64 S17       29.94F HX  80
MACOMB*        PTSUNNY   80  64  58 S18G26    29.95F HX  82
JACKSONVILLE*  PTSUNNY   82  64  54 S15G26    29.96F HX  84
PITTSFIELD*    PTSUNNY   80  64  57 S17G23    29.96F HX  82
$$

ILZ028>032-037-038-041>044-048-051>054-059>061-242000-
CENTRAL ILLINOIS

CITY           SKY/WX    TMP DP  RH WIND       PRES   REMARKS
PONTIAC        PTSUNNY   84  64  50 S18G25    30.02F HX  85
BLOOMINGTON    LGT RAIN  80  66  62 S20       30.03F HX  82
DECATUR        PTSUNNY   83  64  52 S17G28    30.03F HX  84
PEORIA         CLOUDY    76  67  73 S9        29.99F
LACON*         RAIN      71  67  87 S9        30.00F
LINCOLN*       MOSUNNY   84  63  48 S22       29.97F HX  84
SPRINGFIELD    PTSUNNY   84  64  50 S22G29    29.99F HX  85
TAYLORVILLE    PTSUNNY   81  63  54 S17G25    30.02F HX  82
$$

ILZ033-039-045-046-055>057-062-063-242000-
EAST-CENTRAL ILLINOIS

CITY           SKY/WX    TMP DP  RH WIND       PRES   REMARKS
CHAMPAIGN      PTSUNNY   84  61  45 S23G30    30.05F HX  84
DANVILLE*      PTSUNNY   84  61  45 S18G24    30.05F HX  84
RANTOUL*       PTSUNNY   87  62  44 S20G28    30.05F HX  87
MATTOON        MOSUNNY   81  62  52 S14G28    30.06F HX  82
PARIS*         MOSUNNY   84  60  43 S20       30.10F HX  84
$$

ILZ079-100>102-242000-
SOUTHWEST ILLINOIS

CITY           SKY/WX    TMP DP  RH WIND       PRES   REMARKS
BELLEVILLE     PTSUNNY   83  67  59 S17G28    29.99F HX  85
CAHOKIA*       PTSUNNY   84  63  49 S13G28    29.98F HX  85
SPARTA*        PTSUNNY   81  65  58 S17G28    30.02F HX  83
$$

ILZ064>066-069>071-074>076-080>082-084>086-088>090-092>094-242000-
SOUTH-CENTRAL ILLINOIS

CITY           SKY/WX    TMP DP  RH WIND       PRES   REMARKS
CARBONDALE     PTSUNNY   83  64  52 S15G26    30.04F HX  84
CAIRO*         PTSUNNY   85  64  49 S16G25    30.05F HX  86
EFFINGHAM*     PTSUNNY   82  59  44 SE13      30.08F HX  82
MARION         PTSUNNY   84  66  54 S16       30.07F HX  86
MT. VERNON     PTSUNNY   82  64  54 S14G21    30.07F HX  84
CENTRALIA*     MOSUNNY   83  62  50 S17G23    30.05F HX  83
SALEM*         MOSUNNY   85  63  47 S14G20    30.05F HX  85
METROPOLIS*    PTSUNNY   85  65  49 S10G24    30.06F HX  87
$$

ILZ067-068-072-073-078-083-087-091-242000-
SOUTHEAST ILLINOIS

CITY           SKY/WX    TMP DP  RH WIND       PRES   REMARKS
LAWRENCEVILLE  PTSUNNY   82  60  47 S15       30.11F HX  82
FLORA*         SUNNY     83  62  49 S17G24    30.08F HX  84
FAIRFIELD*     CLOUDY    83  63  51 S16       30.07F HX  84
HARRISBURG*    MOSUNNY   85  62  46 S17G24    30.08F HX  85
ROBINSON*      MOSUNNY   83  58  41 S17       30.11F HX  83
CARMI*         PTSUNNY   84  54  34 S14G22    30.09F HX  83
$$

ABBREVIATIONS USED IN REMARKS
   TC - TEMPERATURE IN CELSIUS
  WCI - WIND CHILL INDEX
   HX - HEAT INDEX
  VSB - VISIBILITY
$$



USA.gov is the U.S. government's official web portal to all federal, state and local government web resources and services.